Change the Weather History Date:

Tuesday, May 28, 2013

  Actual Average Record
Temperature  
Mean Temperature 60 °F -  
Max Temperature 77 °F 63 °F 78 °F (2001)
Min Temperature 43 °F 40 °F 32 °F (1998)
Degree Days  
Heating Degree Days 5    
Growing Degree Days 10 (Base 50)    
Moisture  
Dew Point 44 °F    
Average Humidity 56    
Maximum Humidity 87    
Minimum Humidity 19    
Precipitation  
Precipitation 0.00 in - - ()
Sea Level Pressure  
Sea Level Pressure 29.75 in    
Wind  
Wind Speed 4 mph ()    
Max Wind Speed 14 mph    
Max Gust Speed 21 mph    
Visibility 9.1 miles    
Events Rain    
Averages and records for this station are not official NWS values.
T = Trace of Precipitation, MM = Missing Value Source: Averaged Metar Reports

Daily Weather History Graph

Daily Weather History Graph

Search for Another Location

Airport or City:

Trip Planner

Search our weather history database for the weather conditions in past years. The results will help you decide how hot, cold, wet, or windy it might be!

Date:

Astronomy

May. 28, 2013 Rise Set
Actual Time 4:46 AM MDT 9:58 PM MDT
Civil Twilight 3:48 AM MDT 10:57 PM MDT
Nautical Twilight 1:54 AM MDT 12:49 AM MDT
Astronomical Twilight Sun does not rise Sun does not rise
Moon 12:20 AM MDT 9:01 AM MDT
Length of Visible Light 19h 09m
Length of Day
17h 12m
Waning Gibbous, 82% of the Moon is Illuminated
May 28
Waning Gibbous
May 31
Last Quarter
Jun 8
New
Jun 16
First Quarter
Jun 23
Full

Hourly Weather History & Observations

Time (MDT) Temp. Windchill Dew Point Humidity Pressure Visibility Wind Dir Wind Speed Gust Speed Precip Events Conditions
12:00 AM 57 °F - 46 °F 56% 29.79 in 10 mi NE 2.3 mph - -  
12:00 AM 57.2 °F - 46.4 °F 67% 29.79 in 9.0 mi NE 3.5 mph - N/A   Mostly Cloudy
1:00 AM 51.8 °F - 44.6 °F 76% 29.79 in 9.0 mi SW 2.3 mph - N/A   Clear
2:00 AM 50.0 °F - 42.8 °F 76% 29.79 in 9.0 mi SSW 4.6 mph - N/A   Clear
3:00 AM 48.2 °F - 44.6 °F 87% 29.78 in 9.0 mi Variable 2.3 mph - N/A   Partly Cloudy
4:00 AM 46.4 °F - 41.0 °F 81% 29.78 in 9.0 mi Calm Calm - N/A   Clear
5:00 AM 44.6 °F - 41.0 °F 87% 29.78 in 9.0 mi Calm Calm - N/A   Clear
6:00 AM 45 °F - 42 °F 84% 29.79 in 10 mi SSW 3.5 mph - -   Overcast
6:00 AM 44.6 °F 43.1 °F 41.0 °F 87% 29.79 in 9.0 mi SSW 3.5 mph - N/A   Overcast
7:00 AM 50.0 °F - 44.6 °F 82% 29.79 in 9.0 mi Calm Calm - N/A   Partly Cloudy
8:00 AM 55.4 °F - 46.4 °F 72% 29.78 in 9.0 mi Calm Calm - N/A   Scattered Clouds
9:00 AM 59.0 °F - 46.4 °F 63% 29.78 in 9.0 mi NW 4.6 mph - N/A   Clear
10:00 AM 64.4 °F - 46.4 °F 52% 29.77 in 9.0 mi West 3.5 mph - N/A   Clear
11:00 AM 68.0 °F - 48.2 °F 49% 29.76 in 9.0 mi Variable 2.3 mph - N/A   Clear
12:00 PM 71 °F - 44 °F 27% 29.75 in 10 mi West 5.8 mph - -  
12:00 PM 71.6 °F - 44.6 °F 38% 29.75 in 9.0 mi West 5.8 mph - N/A   Clear
1:00 PM 75.2 °F - 39.2 °F 27% 29.73 in 9.0 mi Variable 4.6 mph - N/A   Clear
2:00 PM 75.2 °F - 37.4 °F 25% 29.72 in 9.0 mi West 4.6 mph - N/A   Clear
3:00 PM 75.2 °F - 35.6 °F 24% 29.71 in 9.0 mi Variable 5.8 mph - N/A   Clear
4:00 PM 78.8 °F - 37.4 °F 23% 29.70 in 9.0 mi NNW 8.1 mph - N/A   Mostly Cloudy
5:00 PM 75.2 °F - 41.0 °F 29% 29.69 in 9.0 mi East 9.2 mph - N/A   Mostly Cloudy
6:00 PM 74 °F - 41 °F 19% 29.70 in 10 mi NNE 4.6 mph - -   Overcast
6:00 PM 73.4 °F - 41.0 °F 31% 29.70 in 9.0 mi ENE 5.8 mph - N/A   Overcast
6:17 PM 73.4 °F - 42.8 °F 33% 29.69 in 9.0 mi Variable 11.5 mph - N/A Rain Light Rain
7:00 PM 66.2 °F - 48.2 °F 52% 29.71 in 9.0 mi SSE 13.8 mph 20.7 mph N/A Rain Light Rain
7:04 PM 66.2 °F - 48.2 °F 52% 29.71 in 9.0 mi SSE 13.8 mph - N/A   Overcast
8:00 PM 62.6 °F - 50.0 °F 63% 29.73 in 9.0 mi South 9.2 mph - N/A   Scattered Clouds
9:00 PM 62.6 °F - 50.0 °F 63% 29.72 in 9.0 mi SSE 3.5 mph - N/A   Clear
10:00 PM 59.0 °F - 50.0 °F 72% 29.71 in 9.0 mi ENE 4.6 mph - N/A   Partly Cloudy
11:00 PM 53.6 °F - 48.2 °F 82% 29.73 in 9.0 mi South 4.6 mph - N/A   Partly Cloudy